Torna al catalogo

FALCONSAT-10

AttivoScienzaSSO
NORAD 58291·PAYLOAD·🇺🇸 United States

Lanciato Nov 11, 2023 da Vandenberg Space Force Base

Loading…

Prossimi Passaggi (prossime 24 ore)

TLE

AggiornatoSource: Space-Track

Epoca: Sep 14, 2026, 03:48 UTC

1 58291U 23174AM  26257.15834154  .00003614  00000-0  13348-3 0  9991
2 58291  97.3733 332.3199 0007065 224.5030 135.5643 15.28370149158352

Traccia FALCONSAT-10 in tempo reale con AllMySat

Download on the App Store